This is the latest recevied weather packets stored in our database for station/object OK1OBR-13. If no packets are shown the sender has not sent any weather packets the latest 1 day(s).
| Time | Temp. | Humidity | Pressure | Rain* | Wind** | Luminosity | Snow |
|---|---|---|---|---|---|---|---|
| 1777981681 | 21.67° C | 44% | 930 hPa | 0 mm | 0.89 m/s, 160° | - | - |
| 1777981621 | 21.11° C | 43% | 930 hPa | 0 mm | 0.45 m/s, 190° | - | - |
| 1777981561 | 21.11° C | 48% | 929.9 hPa | 0 mm | 0.45 m/s, 198° | - | - |
| 1777981501 | 21.11° C | 46% | 930.1 hPa | 0 mm | 0.89 m/s, 188° | - | - |
| 1777981441 | 21.11° C | 45% | 930 hPa | 0 mm | 0.89 m/s, 219° | - | - |
| 1777981381 | 21.11° C | 43% | 930 hPa | 0 mm | 0.89 m/s, 206° | - | - |
| 1777981321 | 21.11° C | 43% | 929.8 hPa | 0 mm | 0.45 m/s, 221° | - | - |
| 1777981262 | 21.11° C | 44% | 930 hPa | 0 mm | 0.89 m/s, 214° | - | - |
| 1777981200 | 21.11° C | 44% | 930.2 hPa | 0 mm | 1.34 m/s, 212° | - | - |
| 1777981141 | 21.11° C | 44% | 930.2 hPa | 0 mm | 0.89 m/s, 210° | - | - |
| 1777981082 | 21.11° C | 45% | 929.9 hPa | 0 mm | 0.89 m/s, 207° | - | - |
| 1777981020 | 21.11° C | 45% | 930 hPa | 0 mm | 1.34 m/s, 188° | - | - |
| 1777980961 | 21.11° C | 45% | 930 hPa | 0 mm | 0.89 m/s, 173° | - | - |
| 1777980900 | 21.11° C | 44% | 930.1 hPa | 0 mm | 0.89 m/s, 144° | - | - |
| 1777980842 | 21.11° C | 43% | 929.8 hPa | 0 mm | 0.89 m/s, 172° | - | - |
| 1777980782 | 21.11° C | 46% | 930.2 hPa | 0 mm | 0.89 m/s, 162° | - | - |
| 1777980721 | 21.11° C | 46% | 930 hPa | 0 mm | 0.89 m/s, 173° | - | - |
| 1777980661 | 21.11° C | 45% | 930 hPa | 0 mm | 1.34 m/s, 207° | - | - |
| 1777980601 | 21.11° C | 45% | 930.1 hPa | 0 mm | 0.89 m/s, 214° | - | - |
| 1777980541 | 21.11° C | 45% | 930.1 hPa | 0 mm | 0.89 m/s, 214° | - | - |
| 1777980481 | 20.56° C | 44% | 930 hPa | 0 mm | 0.89 m/s, 180° | - | - |
| 1777980421 | 20.56° C | 48% | 929.8 hPa | 0 mm | 0.89 m/s, 180° | - | - |
| 1777980361 | 21.11° C | 45% | 930 hPa | 0 mm | 0.45 m/s, 174° | - | - |
| 1777980301 | 21.11° C | 45% | 930 hPa | 0 mm | 0.89 m/s, 195° | - | - |
| 1777980241 | 21.11° C | 46% | 929.9 hPa | 0 mm | 0.89 m/s, 194° | - | - |
* Rain since midnight (hover to see other rain measurements)
** Current wind speed in m/s (hover to see current wind gust speed)